Biblioteca

Faixas (78)
Faixa Álbum Duração Data
Kinetic 4:05 Ago 19 2012, 4h50
Kinetic 4:05 Mai 26 2012, 4h52
Kinetic 4:05 Fev 9 2012, 4h27
Kinetic 4:05 Fev 1 2012, 19h14
Kinetic 4:05 Jul 5 2011, 12h18
Kinetic 4:05 Jun 21 2011, 2h29
Kinetic 4:05 Jun 16 2011, 1h34
Kinetic 4:05 Jun 7 2011, 7h21
Kinetic 4:05 Mai 7 2011, 17h28
Kinetic 4:05 Abr 7 2011, 23h40
Kinetic 4:05 Abr 7 2011, 23h40
Kinetic 4:05 Mar 24 2011, 17h49
Kinetic 4:05 Fev 21 2011, 4h01
Kinetic 4:05 Fev 21 2011, 4h01
Kinetic 4:05 Fev 21 2011, 4h01
Kinetic 4:05 Fev 17 2011, 16h24
Kinetic 4:05 Fev 17 2011, 4h34
Kinetic 4:05 Jan 29 2011, 4h22
Kinetic 4:05 Jan 18 2011, 16h34
Kinetic 4:05 Jan 17 2011, 0h10
Kinetic 4:05 Jan 17 2011, 0h10
Kinetic 4:05 Jan 17 2011, 0h10
Kinetic 4:05 Dez 4 2010, 4h23
Kinetic 4:05 Out 24 2010, 22h29
Kinetic 4:05 Out 24 2010, 0h06
Kinetic 4:05 Out 20 2010, 15h03
Kinetic 4:05 Out 18 2010, 20h01
Kinetic 4:05 Out 18 2010, 20h01
Kinetic 4:05 Out 18 2010, 20h01
Kinetic 4:05 Out 18 2010, 20h01
Kinetic 4:05 Out 10 2010, 6h01
Kinetic 4:05 Out 10 2010, 6h01
Kinetic 4:05 Out 3 2010, 7h29
Kinetic 4:05 Out 3 2010, 7h29
Kinetic 4:05 Out 3 2010, 7h29
Kinetic 4:05 Out 3 2010, 7h29
Kinetic 4:05 Out 3 2010, 7h29
Kinetic 4:05 Out 3 2010, 7h29
Kinetic 4:05 Out 3 2010, 7h29
Kinetic 4:05 Out 3 2010, 7h29
Kinetic 4:05 Out 3 2010, 7h29
Kinetic 4:05 Out 3 2010, 7h29
Kinetic 4:05 Out 3 2010, 7h29
Kinetic 4:05 Out 3 2010, 7h29
Kinetic 4:05 Out 3 2010, 7h29
Kinetic 4:05 Out 3 2010, 7h29
Kinetic 4:05 Out 3 2010, 7h29
Kinetic 4:05 Out 3 2010, 7h29
Kinetic 4:05 Out 3 2010, 7h29
Kinetic 4:05 Out 3 2010, 7h29
Kinetic 4:05 Out 3 2010, 7h29
Kinetic 4:05 Out 3 2010, 7h29
Kinetic 4:05 Out 3 2010, 7h29
Kinetic 4:05 Out 3 2010, 7h29
Kinetic 4:05 Out 3 2010, 7h29
Kinetic 4:05 Out 3 2010, 7h29
Kinetic 4:05 Out 3 2010, 7h29
Kinetic 4:05 Out 3 2010, 7h29
Kinetic 4:05 Out 3 2010, 7h29
Kinetic 4:05 Out 3 2010, 7h29
Kinetic 4:05 Out 3 2010, 7h29
Kinetic 4:05 Out 3 2010, 7h29
Kinetic 4:05 Out 3 2010, 7h29
Kinetic 4:05 Out 3 2010, 7h29
Kinetic 4:05 Set 23 2010, 22h15
Kinetic 4:05 Set 22 2010, 4h38
Kinetic 4:05 Set 14 2010, 16h09
Kinetic 4:05 Set 11 2010, 0h50
Kinetic 4:05 Set 8 2010, 23h06
Kinetic 4:05 Ago 16 2010, 1h33
Kinetic 4:05 Ago 10 2010, 19h28
Kinetic 4:05 Ago 3 2010, 14h01
Kinetic 4:05 Jul 30 2010, 0h17
Kinetic 4:05 Jul 24 2010, 4h30
Kinetic 4:05 Jul 21 2010, 4h51
Kinetic 4:05 Jul 13 2010, 6h09
Kinetic 4:05 Jun 24 2010, 19h29
Kinetic 4:05 Jun 11 2010, 17h09